Location: Brotuna
(46.2000°N, 22.6000°E)
Time: 01:43:43
(UTC+00:00)

Lacrosse 5 rocket - Pass Details

Date: 09 April 2020
Orbit: 458 x 638 km, 57.0° (Epoch: 25 May)

Event Time Altitude Azimuth Distance (km) Brightness Sun altitude
Exits shadow 23:54:19 16° 28° (NNE) 1,363 4.0 -32.6°
Drops below altitude 10° 23:55:24 10° 38° (NE) 1,728 4.7 -32.6°
Sets 23:57:51 0° 49° (NE) 2,651 5.7 -32.4°
